Sivas, Turkey

7:01 PM +03 on April 24, 2017 (GMT +0300)
Sivas

Weather History for LTAR - October, 2012

Change the Weather History Date:

Tuesday, October 9, 2012

  Actual Average Record
Temperature  
Mean Temperature 54 °F -  
Max Temperature 62 °F 60 °F - ()
Min Temperature 42 °F 37 °F - ()
Degree Days  
Heating Degree Days 12    
Growing Degree Days 4 (Base 50)    
Moisture  
Dew Point 44 °F    
Average Humidity 84    
Maximum Humidity 100    
Minimum Humidity 41    
Precipitation  
Precipitation 0.02 in 0.04 in - ()
Sea Level Pressure  
Sea Level Pressure 30.02 in    
Wind  
Wind Speed 5 mph ()    
Max Wind Speed 10 mph    
Max Gust Speed -    
Visibility 6.2 miles    
Events Fog , Rain    
T = Trace of Precipitation, MM = Missing Value Source: Averaged Metar Reports

Daily Weather History Graph

Daily Weather History Graph

Search for Another Location

Airport or City:

Trip Planner

Search our weather history database for the weather conditions in past years. The results will help you decide how hot, cold, wet, or windy it might be!

Date:

Astronomy

Oct. 09, 2012 Rise Set
Actual Time 6:36 AM EEST 6:01 PM EEST
Civil Twilight 6:09 AM EEST 6:28 PM EEST
Nautical Twilight 5:38 AM EEST 7:00 PM EEST
Astronomical Twilight 5:07 AM EEST 7:31 PM EEST
Moon No Moon Rise 2:15 PM EEST (10/9)
Length of Visible Light 12h 19m
Length of Day
11h 25m
Last Quarter, 40% of the Moon is Illuminated
Oct 9
Last Quarter
Oct 15
New
Oct 22
First Quarter
Oct 29
Full
Nov 7
Last Quarter

Hourly Weather History & Observations

Time (EEST) Temp. Windchill Dew Point Humidity Pressure Visibility Wind Dir Wind Speed Gust Speed Precip Events Conditions
12:50 AM 44.6 °F 41.4 °F 42.8 °F 93% 29.98 in 6.2 mi SSE 5.8 mph - N/A   Scattered Clouds
1:50 AM 42.8 °F 38.6 °F 41.0 °F 93% 29.98 in 6.2 mi SSE 6.9 mph - N/A   Scattered Clouds
2:50 AM 46.4 °F 43.5 °F 42.8 °F 87% 29.98 in 6.2 mi South 5.8 mph - N/A   Scattered Clouds
3:50 AM 46.4 °F 42.4 °F 44.6 °F 93% 29.98 in 5.0 mi East 8.1 mph - N/A Rain Light Rain
4:50 AM 42.8 °F 38.6 °F 41.0 °F 93% 29.98 in 5.0 mi SE 6.9 mph - N/A Rain Light Rain
5:50 AM 41.0 °F 37.1 °F 39.2 °F 93% 29.98 in 6.2 mi SE 5.8 mph - N/A   Overcast
7:50 AM 44.6 °F 42.2 °F 44.6 °F 100% 30.01 in 0.3 mi ESE 4.6 mph - N/A Fog Fog
8:50 AM 48.2 °F - 46.4 °F 93% 30.04 in 5.0 mi South 3.5 mph - N/A   Mostly Cloudy
9:00 AM 49 °F - 46 °F 87%  in 9 mi Calm Calm - -   Partly Cloudy
9:50 AM 51.8 °F - 46.4 °F 82% 30.04 in 6.2 mi SW 8.1 mph - N/A   Mostly Cloudy
10:50 AM 51.8 °F - 44.6 °F 76% 30.04 in 6.2 mi SW 6.9 mph - N/A   Mostly Cloudy
11:50 AM 53.6 °F - 46.4 °F 77% 30.04 in 6.2 mi SSW 6.9 mph - N/A   Mostly Cloudy
12:50 PM 53.6 °F - 46.4 °F 77% 30.04 in 6.2 mi South 8.1 mph - N/A   Mostly Cloudy
1:50 PM 53.6 °F - 44.6 °F 72% 30.01 in 6.2 mi West 6.9 mph - N/A   Mostly Cloudy
2:50 PM 55.4 °F - 42.8 °F 63% 30.01 in 6.2 mi SW 10.4 mph - N/A   Mostly Cloudy
3:00 PM 62 °F - 44 °F 41%  in 9 mi West 3.5 mph - -   Partly Cloudy
3:50 PM 53.6 °F - 46.4 °F 77% 30.01 in 6.2 mi West 6.9 mph - N/A Rain Light Rain Showers
4:50 PM 50.0 °F - 46.4 °F 87% 30.01 in 6.2 mi NNW 9.2 mph - N/A   Mostly Cloudy
5:50 PM 48.2 °F - 44.6 °F 87% 30.01 in 6.2 mi North 4.6 mph - N/A   Mostly Cloudy
6:50 PM 48.2 °F - 44.6 °F 87% 30.04 in 6.2 mi North 5.8 mph - N/A   Mostly Cloudy
7:50 PM 48.2 °F - 44.6 °F 87% 30.04 in 6.2 mi SE 3.5 mph - N/A   Mostly Cloudy
8:50 PM 48.2 °F - 46.4 °F 93% 30.06 in 6.2 mi SSE 6.9 mph - N/A Rain Light Rain Showers
9:00 PM 52 °F - 45 °F 70%  in 9 mi Calm Calm - - Rain Light Rain
9:50 PM 46.4 °F 42.4 °F 44.6 °F 93% 30.04 in 6.2 mi SSE 8.1 mph - N/A   Mostly Cloudy
10:50 PM 46.4 °F 42.9 °F 44.6 °F 93% 30.04 in 6.2 mi SE 6.9 mph - N/A   Mostly Cloudy
11:50 PM 42.8 °F 39.3 °F 41.0 °F 93% 30.04 in 6.2 mi SSE 5.8 mph - N/A   Mostly Cloudy